COSMOS 2499 DEB, 49933

Orbit data source: Space-Track

COSMOS 2499 DEB, 49933 is space debris in LEO originally from a launch on Fri, 23 May 2014 UTC launched from the Plesetsk Missile And Space Complex (PKMTR). Debris objects in space refer to the collection of defunct objects orbiting the Earth. Examples of debris include non-operational satellites, rocket bodies, and fragments generated from explosions, collisions, or faulty payload assembly.

Loading next visibility...
Identifier
49933, 2014-028Q
Orbit
LEO
Country
Flag of CISCIS
Related business
Manufacturer
TsNIIKhM
Mission
Spacecraft
Bus & Motor
Unknown
Mass
Unknown
Launch date (UTC)
2014-05-23 (12 years ago)
Launch vehicle
Unknown
Launch site
Plesetsk Missile And Space Complex (PKMTR)
Object type
Payload
Rocket body
Debris
Shape & HBR
Unknown shape, 0.1 m
Radar Cross Section
Small (<0.1 m²)

Expand to show TLE details & history
Last TLE update: 2 days ago

TLE from 2 days ago
0 COSMOS 2499 DEB
1 49933U 14028Q   25347.80508816  .00001621  00000-0  50105-2 0  9993
2 49933  82.5625  19.2736 0270121  19.2685 341.8403 12.93028759193967
Epoch: 2025-12-13T19:19Z
TLE epoch observation values (Epoch: 2025-12-13T19:19:19.617Z)
Latitude
-0°
Longitude
6.71477°
Altitude
1,096.027 km
Speed
7.397 km/s
True Right ascension
01h 17m 05s
True Declination
0° 00' 00"
Sunlit
Object was in daylight at epoch
Visualization orbit readout
Latitude
Unknown
Longitude
Unknown
Altitude
Unknown
Speed
Unknown
Apparent Right ascension
Unknown
Apparent Declination
Unknown
Sunlit
N/A
Visualization observer readout
Local Sidereal Time
03:22:58
Azimuth
Unknown
Elevation
Unknown
Doppler factor
Unknown
Orbital elements
Apogee altitude
1,493.848 km
Perigee altitude
1,079.755 km
Semi-major axis
7,664.939 km
Eccentricity
0.02701
Inclination
82.5625°
RAAN
19.2736°
Arg. of periapsis
19.2685°
True anomaly
340.8437°
Mean anomaly
341.8403°
Eccentric anomaly
341.34525°
Mean motion
3.2343 °/min
Orbital period
111.31 mins
BSTAR
0.0050105
Loading maneuver chart data...
Computing Atmospheric mass density...
Loading historical data...
Loading historical data...
Loading historical data...
Loading historical data...
Loading historical data...
Loading historical data...
Loading historical data...

Documentation

Showing up to 5 results
|